| time (UTC) | temp C | wind direction | speed KPH | gust KPH | rain 1hr cm | rain 24hr cm | rain mn cm | humidity % | barometer mb |
| 20260504160415 | 17 | 127 | 4.8 | 8.0 | 0.03 | 0.15 | 0.05 | 77 | 1011.9 |
| 20260504150400 | 17 | 283 | 6.4 | 11.3 | 0.00 | 0.13 | 0.05 | 78 | 1012.4 |
| 20260504140352 | 18 | 214 | 9.7 | 19.3 | 0.00 | 0.13 | 0.05 | 71 | 1012.4 |
| 20260504130341 | 19 | 191 | 1.6 | 14.5 | 0.00 | 0.13 | 0.05 | 70 | 1012.6 |
| 20260504110339 | 20 | 114 | 6.4 | 17.7 | 0.00 | 0.08 | 0.00 | 67 | 1012.8 |
| 20260504100346 | 21 | 219 | 12.9 | 20.9 | 0.00 | 0.08 | 0.00 | 57 | 1012.9 |
| 20260504081354 | 18 | 183 | 3.2 | 11.3 | 0.00 | 0.08 | 0.00 | 70 | 1013.2 |
| 20260504080339 | 18 | 219 | 1.6 | 8.0 | 0.00 | 0.08 | 0.00 | 72 | 1013.3 |
| 20260504070348 | 16 | 245 | 0.0 | 6.4 | 0.00 | 0.08 | 0.00 | 89 | 1013.9 |
| 20260504050335 | 15 | 9 | 0.0 | 1.6 | 0.00 | 0.08 | 0.00 | 94 | 1013.9 |
| 20260504045354 | 15 | 9 | 0.0 | 1.6 | 0.00 | 0.08 | 0.00 | 94 | 1014.0 |
| 20260504044356 | 15 | 9 | 1.6 | 4.8 | 0.00 | 0.08 | 0.00 | 94 | 1013.9 |
| 20260504043336 | 15 | 9 | 3.2 | 4.8 | 0.00 | 0.08 | 0.00 | 93 | 1014.0 |
| 20260504042339 | 15 | 14 | 0.0 | 4.8 | 0.00 | 0.08 | 0.00 | 94 | 1014.0 |
| 20260504041348 | 15 | 15 | 0.0 | 3.2 | 0.00 | 0.08 | 0.00 | 93 | 1014.0 |
| 20260504040337 | 15 | 15 | 1.6 | 3.2 | 0.00 | 0.08 | 0.00 | 93 | 1014.0 |
| 20260504035338 | 15 | 15 | 1.6 | 4.8 | 0.00 | 0.08 | 0.00 | 93 | 1014.1 |
| 20260504034337 | 15 | 29 | 0.0 | 4.8 | 0.00 | 0.08 | 0.00 | 93 | 1014.1 |
| 20260504033345 | 15 | 29 | 1.6 | 4.8 | 0.00 | 0.08 | 0.00 | 93 | 1014.1 |
| 20260504032347 | 15 | 27 | 0.0 | 0.0 | 0.00 | 0.08 | 0.00 | 93 | 1014.3 |
| 20260504031354 | 15 | 27 | 0.0 | 0.0 | 0.00 | 0.08 | 0.00 | 93 | 1014.5 |
| 20260504030339 | 15 | 27 | 0.0 | 0.0 | 0.00 | 0.08 | 0.00 | 93 | 1014.5 |
| 20260504025342 | 15 | 27 | 0.0 | 0.0 | 0.00 | 0.08 | 0.00 | 93 | 1014.4 |
| 20260504024343 | 15 | 27 | 0.0 | 0.0 | 0.00 | 0.08 | 0.00 | 93 | 1014.3 |
| 20260504023347 | 15 | 27 | 0.0 | 0.0 | 0.00 | 0.08 | 0.00 | 93 | 1014.1 |
| 20260504022341 | 15 | 27 | 0.0 | 0.0 | 0.00 | 0.08 | 0.00 | 92 | 1014.2 |
| 20260504021347 | 15 | 27 | 0.0 | 0.0 | 0.00 | 0.08 | 0.00 | 92 | 1014.3 |
| 20260504020349 | 15 | 27 | 0.0 | 0.0 | 0.00 | 0.08 | 0.00 | 92 | 1014.3 |
| 20260504015350 | 15 | 27 | 0.0 | 0.0 | 0.00 | 0.08 | 0.00 | 93 | 1014.3 |
| 20260504014353 | 15 | 27 | 0.0 | 0.0 | 0.00 | 0.08 | 0.00 | 92 | 1014.6 |
| 20260504013354 | 15 | 27 | 0.0 | 0.0 | 0.00 | 0.08 | 0.00 | 92 | 1014.7 |
| 20260504012351 | 15 | 27 | 0.0 | 0.0 | 0.00 | 0.08 | 0.00 | 92 | 1014.7 |
| 20260504011357 | 15 | 27 | 0.0 | 0.0 | 0.00 | 0.08 | 0.00 | 92 | 1014.8 |
| 20260504010338 | 15 | 27 | 0.0 | 0.0 | 0.00 | 0.08 | 0.00 | 92 | 1014.8 |
| 20260504005356 | 15 | 27 | 0.0 | 0.0 | 0.00 | 0.08 | 0.00 | 92 | 1015.0 |
| 20260504004355 | 15 | 27 | 0.0 | 0.0 | 0.00 | 0.08 | 0.00 | 92 | 1015.1 |
| 20260504003337 | 15 | 27 | 0.0 | 0.0 | 0.00 | 0.08 | 0.00 | 92 | 1015.2 |
| 20260504002337 | 15 | 27 | 0.0 | 3.2 | 0.00 | 0.08 | 0.00 | 92 | 1015.3 |
| 20260504001337 | 15 | 27 | 1.6 | 6.4 | 0.00 | 0.08 | 0.00 | 91 | 1015.2 |
| 20260504000336 | 15 | 31 | 0.0 | 0.0 | 0.00 | 0.08 | 0.00 | 92 | 1015.2 |
| 20260503235356 | 15 | 34 | 0.0 | 0.0 | 0.00 | 0.08 | 0.00 | 92 | 1015.1 |
| 20260503234338 | 15 | 34 | 0.0 | 0.0 | 0.00 | 0.08 | 0.00 | 92 | 1015.4 |
| 20260503233341 | 15 | 34 | 0.0 | 0.0 | 0.00 | 0.08 | 0.00 | 91 | 1015.5 |
| 20260503232354 | 15 | 34 | 0.0 | 3.2 | 0.00 | 0.08 | 0.00 | 91 | 1015.4 |
| 20260503231353 | 15 | 34 | 1.6 | 4.8 | 0.00 | 0.08 | 0.00 | 91 | 1015.4 |
| 20260503230339 | 15 | 34 | 1.6 | 3.2 | 0.00 | 0.08 | 0.00 | 91 | 1015.5 |
| 20260503225358 | 15 | 34 | 3.2 | 6.4 | 0.00 | 0.08 | 0.00 | 90 | 1015.5 |
| 20260503224358 | 15 | 32 | 4.8 | 6.4 | 0.00 | 0.08 | 0.00 | 90 | 1015.5 |
| 20260503223358 | 15 | 26 | 3.2 | 6.4 | 0.00 | 0.08 | 0.00 | 89 | 1015.6 |
| 20260503222354 | 15 | 33 | 3.2 | 8.0 | 0.00 | 0.08 | 0.00 | 89 | 1015.7 |
| 20260503221339 | 15 | 11 | 4.8 | 11.3 | 0.00 | 0.08 | 0.00 | 89 | 1015.8 |
| 20260503220343 | 15 | 26 | 4.8 | 11.3 | 0.00 | 0.08 | 0.00 | 90 | 1015.6 |
| 20260503215343 | 15 | 33 | 6.4 | 11.3 | 0.00 | 0.08 | 0.08 | 90 | 1015.7 |
| 20260503214350 | 15 | 24 | 4.8 | 8.0 | 0.00 | 0.08 | 0.08 | 89 | 1015.9 |
| 20260503213356 | 15 | 38 | 4.8 | 9.7 | 0.00 | 0.08 | 0.08 | 89 | 1015.8 |
| 20260503212351 | 15 | 39 | 3.2 | 8.0 | 0.05 | 0.08 | 0.08 | 87 | 1015.9 |
| 20260503211351 | 15 | 34 | 1.6 | 6.4 | 0.05 | 0.08 | 0.08 | 87 | 1015.9 |
| 20260503210355 | 15 | 35 | 3.2 | 11.3 | 0.05 | 0.08 | 0.08 | 86 | 1016.0 |
| 20260503205357 | 15 | 51 | 3.2 | 8.0 | 0.05 | 0.08 | 0.05 | 85 | 1015.9 |
| 20260503204355 | 15 | 23 | 4.8 | 8.0 | 0.05 | 0.08 | 0.05 | 83 | 1016.0 |
| 20260503203359 | 15 | 101 | 0.0 | 6.4 | 0.05 | 0.08 | 0.05 | 82 | 1016.2 |
| 20260503202356 | 16 | 99 | 4.8 | 9.7 | 0.03 | 0.05 | 0.03 | 81 | 1016.2 |
| 20260503201357 | 16 | 48 | 0.0 | 3.2 | 0.00 | 0.03 | 0.03 | 80 | 1016.0 |
| 20260503200341 | 16 | 48 | 1.6 | 4.8 | 0.00 | 0.03 | 0.03 | 80 | 1015.8 |
| 20260503195358 | 16 | 48 | 0.0 | 3.2 | 0.00 | 0.03 | 0.03 | 79 | 1016.0 |
| 20260503194341 | 16 | 48 | 1.6 | 4.8 | 0.00 | 0.03 | 0.03 | 79 | 1015.8 |
| 20260503193340 | 16 | 47 | 0.0 | 6.4 | 0.00 | 0.03 | 0.03 | 79 | 1015.6 |
| 20260503192357 | 16 | 46 | 3.2 | 6.4 | 0.03 | 0.03 | 0.03 | 78 | 1015.5 |
| 20260503191358 | 16 | 45 | 1.6 | 8.0 | 0.03 | 0.03 | 0.03 | 77 | 1015.3 |
| 20260503190340 | 16 | 49 | 6.4 | 8.0 | 0.03 | 0.03 | 0.03 | 76 | 1015.2 |
| 20260503185342 | 16 | 85 | 3.2 | 8.0 | 0.03 | 0.03 | 0.03 | 76 | 1015.5 |
| 20260503184347 | 16 | 82 | 1.6 | 6.4 | 0.03 | 0.03 | 0.03 | 76 | 1015.6 |
| 20260503183352 | 16 | 81 | 1.6 | 6.4 | 0.03 | 0.03 | 0.03 | 75 | 1015.5 |
| 20260503182344 | 17 | 77 | 1.6 | 9.7 | 0.00 | 0.00 | 0.00 | 73 | 1015.4 |
| 20260503181350 | 17 | 58 | 3.2 | 6.4 | 0.00 | 0.00 | 0.00 | 72 | 1015.4 |
| 20260503180355 | 17 | 58 | 4.8 | 9.7 | 0.00 | 0.00 | 0.00 | 71 | 1015.3 |
| 20260503175354 | 17 | 111 | 4.8 | 9.7 | 0.00 | 0.00 | 0.00 | 70 | 1015.3 |
| 20260503174338 | 17 | 63 | 4.8 | 14.5 | 0.00 | 0.00 | 0.00 | 70 | 1015.2 |
| 20260503173341 | 17 | 79 | 4.8 | 9.7 | 0.00 | 0.00 | 0.00 | 70 | 1015.0 |
| 20260503172358 | 17 | 62 | 4.8 | 11.3 | 0.00 | 0.00 | 0.00 | 69 | 1015.0 |
| 20260503171339 | 17 | 55 | 6.4 | 11.3 | 0.00 | 0.00 | 0.00 | 68 | 1015.0 |
| 20260503170342 | 17 | 84 | 1.6 | 11.3 | 0.00 | 0.00 | 0.00 | 67 | 1015.1 |